Starlink 35532

operational
NORAD ID: 66090 Int'l Des: 2025-236 Owner: SPXS Country: US Constellation: starlink
NOTLE

Über Starlink 35532

Beschreibung wird geladen...

Live-Position

3D-Globus wird geladen...

Nächste Überflüge

Höhenverlauf

Altitude vs Time

uPlot chart will show altitude changes over time

Zweizeiliger Elementsatz

1 66090C 25236F 25293.06229167 .00553020 00000+0 84818-3 0 2936
2 66090 53.1612 48.3597 0008622 263.8591 240.3116 16.02983019 16
Epoch: 20. Okt. 2025 • Age: 19 hours

Aktueller Status

Höhe 276.0 km
Geschwindigkeit 7.75 km/s
Subsatellitenpunkt 53.29°N, 178.99°E
Startdatum 19. Okt. 2025
Alter 1 days
Typ internet

Technische Details

Klassifizierung Payload
Masse 575.00 kg
Trockenmasse 530.00 kg
Gesamtmasse 575.00 kg
Länge 0.30 m
Durchmesser 4.10 m
Spannweite 29.00 m
Form Box + pan
Hersteller SPXS
Bus-Typ Starlink V2MO
Phasenstatus In Orbit
Besitzer/Staat SPXS/US

Große Konstellationen

Loading constellations...